Weather History for KMWM - September, 2013

Change the Weather History Date:

Friday, September 13, 2013

  Actual Average Record
Temperature  
Mean Temperature 56 °F -  
Max Temperature 71 °F 74 °F 94 °F (1948)
Min Temperature 41 °F 51 °F 32 °F (1975)
Degree Days  
Heating Degree Days 9    
Growing Degree Days 6 (Base 50)    
Moisture  
Dew Point 43 °F    
Average Humidity 63    
Maximum Humidity 93    
Minimum Humidity 33    
Precipitation  
Precipitation 0.00 in - - ()
Sea Level Pressure  
Sea Level Pressure 30.20 in    
Wind  
Wind Speed 2 mph (ESE)    
Max Wind Speed 7 mph    
Max Gust Speed -    
Visibility 10 miles    
Events      
Averages and records for this station are not official NWS values.
T = Trace of Precipitation, MM = Missing Value Source: NWS Daily Summary

Daily Weather History Graph

Daily Weather History Graph

Search for Another Location

Airport or City:

Trip Planner

Search our weather history database for the weather conditions in past years. The results will help you decide how hot, cold, wet, or windy it might be!

Date:

Astronomy

Sep. 13, 2013 Rise Set
Actual Time 6:57 AM CDT 7:33 PM CDT
Civil Twilight 6:28 AM CDT 8:02 PM CDT
Nautical Twilight 5:54 AM CDT 8:37 PM CDT
Astronomical Twilight 5:18 AM CDT 9:12 PM CDT
Moon 3:33 PM CDT (9/13) 12:19 AM CDT (9/13)
Length of Visible Light 13h 34m
Length of Day
12h 36m
First Quarter, 61% of the Moon is Illuminated
Sep 13
First Quarter
Sep 19
Full
Sep 26
Last Quarter
Oct 4
New
Oct 11
First Quarter

Hourly Weather History & Observations

Time (CDT) Temp. Dew Point Humidity Pressure Visibility Wind Dir Wind Speed Gust Speed Precip Events Conditions
12:12 AM 51.8 °F 46.4 °F 82% 30.25 in 10.0 mi NNE 4.6 mph - N/A   Clear
12:32 AM 51.8 °F 46.4 °F 82% 30.25 in 10.0 mi NNE 3.5 mph - N/A   Clear
12:53 AM 51.8 °F 46.4 °F 82% 30.24 in 10.0 mi NNE 3.5 mph - N/A   Clear
1:12 AM 50.0 °F 46.4 °F 87% 30.25 in 10.0 mi NNE 4.6 mph - N/A   Clear
1:32 AM 48.2 °F 44.6 °F 87% 30.25 in 10.0 mi NE 4.6 mph - N/A   Clear
1:53 AM 48.2 °F 44.6 °F 87% 30.25 in 10.0 mi NNE 3.5 mph - N/A   Clear
2:12 AM 48.2 °F 44.6 °F 87% 30.25 in 10.0 mi Calm Calm - N/A   Clear
2:32 AM 48.2 °F 44.6 °F 87% 30.25 in 10.0 mi Calm Calm - N/A   Clear
2:53 AM 48.2 °F 44.6 °F 87% 30.25 in 10.0 mi Calm Calm - N/A   Clear
3:12 AM 46.4 °F 41.0 °F 81% 30.25 in 10.0 mi Calm Calm - N/A   Clear
3:32 AM 46.4 °F 42.8 °F 87% 30.25 in 10.0 mi Calm Calm - N/A   Clear
3:53 AM 46.4 °F 42.8 °F 87% 30.25 in 10.0 mi Calm Calm - N/A   Clear
4:12 AM 44.6 °F 42.8 °F 93% 30.25 in 10.0 mi Calm Calm - N/A   Clear
4:32 AM 44.6 °F 42.8 °F 93% 30.25 in 10.0 mi Calm Calm - N/A   Clear
4:53 AM 44.6 °F 42.8 °F 93% 30.25 in 10.0 mi Calm Calm - N/A   Clear
5:12 AM 44.6 °F 42.8 °F 93% 30.25 in 10.0 mi Calm Calm - N/A   Clear
5:32 AM 42.8 °F 39.2 °F 87% 30.26 in 10.0 mi Calm Calm - N/A   Clear
5:53 AM 42.8 °F 39.2 °F 87% 30.26 in 10.0 mi Calm Calm - N/A   Clear
6:12 AM 42.8 °F 39.2 °F 87% 30.26 in 10.0 mi Calm Calm - N/A   Clear
6:32 AM 42.8 °F 39.2 °F 87% 30.26 in 10.0 mi Calm Calm - N/A   Clear
6:53 AM 41.0 °F 37.4 °F 87% 30.26 in 10.0 mi Calm Calm - N/A   Clear
7:12 AM 42.8 °F 41.0 °F 93% 30.27 in 10.0 mi Calm Calm - N/A   Clear
7:32 AM 44.6 °F 39.2 °F 81% 30.27 in 10.0 mi Calm Calm - N/A   Clear
7:53 AM 46.4 °F 42.8 °F 87% 30.27 in 10.0 mi Calm Calm - N/A   Clear
8:12 AM 48.2 °F 44.6 °F 87% 30.27 in 10.0 mi Calm Calm - N/A   Clear
8:32 AM 51.8 °F 46.4 °F 82% 30.27 in 10.0 mi Calm Calm - N/A   Clear
8:53 AM 57.2 °F 48.2 °F 72% 30.27 in 10.0 mi Calm Calm - N/A   Clear
9:12 AM 59.0 °F 46.4 °F 63% 30.27 in 10.0 mi Calm Calm - N/A   Clear
9:32 AM 60.8 °F 46.4 °F 59% 30.28 in 10.0 mi SE 3.5 mph - N/A   Clear
9:53 AM 62.6 °F 44.6 °F 52% 30.27 in 10.0 mi ESE 5.8 mph - N/A   Clear
10:12 AM 62.6 °F 44.6 °F 52% 30.28 in 10.0 mi ESE 4.6 mph - N/A   Clear
10:32 AM 64.4 °F 44.6 °F 49% 30.27 in 10.0 mi East 5.8 mph - N/A   Clear
10:53 AM 64.4 °F 42.8 °F 45% 30.27 in 10.0 mi ESE 4.6 mph - N/A   Clear
11:12 AM 66.2 °F 42.8 °F 43% 30.27 in 10.0 mi East 3.5 mph - N/A   Clear
11:32 AM 66.2 °F 41.0 °F 40% 30.26 in 10.0 mi East 4.6 mph - N/A   Clear
11:53 AM 66.2 °F 42.8 °F 43% 30.26 in 10.0 mi ESE 3.5 mph - N/A   Clear
12:12 PM 66.2 °F 42.8 °F 43% 30.25 in 10.0 mi Calm Calm - N/A   Clear
12:32 PM 66.2 °F 42.8 °F 43% 30.24 in 10.0 mi ENE 4.6 mph - N/A   Clear
12:53 PM 68.0 °F 42.8 °F 40% 30.23 in 10.0 mi Calm Calm - N/A   Clear
1:12 PM 69.8 °F 42.8 °F 38% 30.22 in 10.0 mi NE 5.8 mph - N/A   Clear
1:32 PM 69.8 °F 42.8 °F 38% 30.22 in 10.0 mi Calm Calm - N/A   Clear
1:53 PM 69.8 °F 42.8 °F 38% 30.21 in 10.0 mi Calm Calm - N/A   Clear
2:12 PM 69.8 °F 41.0 °F 35% 30.20 in 10.0 mi SE 4.6 mph - N/A   Clear
2:32 PM 71.6 °F 41.0 °F 33% 30.19 in 10.0 mi East 4.6 mph - N/A   Clear
2:53 PM 69.8 °F 41.0 °F 35% 30.18 in 10.0 mi Calm Calm - N/A   Clear
3:12 PM 71.6 °F 41.0 °F 33% 30.18 in 10.0 mi SE 6.9 mph - N/A   Clear
3:32 PM 71.6 °F 41.0 °F 33% 30.17 in 10.0 mi ESE 6.9 mph - N/A   Clear
3:53 PM 71.6 °F 41.0 °F 33% 30.16 in 10.0 mi Calm Calm - N/A   Clear
4:12 PM 71.6 °F 41.0 °F 33% 30.16 in 10.0 mi South 5.8 mph - N/A   Clear
4:32 PM 71.6 °F 41.0 °F 33% 30.16 in 10.0 mi SE 5.8 mph - N/A   Clear
4:53 PM 71.6 °F 41.0 °F 33% 30.15 in 10.0 mi Calm Calm - N/A   Clear
5:12 PM 71.6 °F 41.0 °F 33% 30.15 in 10.0 mi Calm Calm - N/A   Clear
5:32 PM 71.6 °F 41.0 °F 33% 30.14 in 10.0 mi South 3.5 mph - N/A   Clear
5:53 PM 69.8 °F 41.0 °F 35% 30.14 in 10.0 mi SE 4.6 mph - N/A   Clear
6:12 PM 69.8 °F 42.8 °F 38% 30.13 in 10.0 mi ESE 3.5 mph - N/A   Clear
6:32 PM 69.8 °F 42.8 °F 38% 30.13 in 10.0 mi ESE 4.6 mph - N/A   Clear
6:53 PM 68.0 °F 44.6 °F 43% 30.12 in 10.0 mi ESE 4.6 mph - N/A   Clear
7:12 PM 66.2 °F 44.6 °F 46% 30.12 in 10.0 mi ESE 3.5 mph - N/A   Clear
7:32 PM 62.6 °F 46.4 °F 55% 30.11 in 10.0 mi ESE 4.6 mph - N/A   Clear
7:53 PM 60.8 °F 46.4 °F 59% 30.11 in 10.0 mi ESE 4.6 mph - N/A   Clear
8:12 PM 60.8 °F 46.4 °F 59% 30.11 in 10.0 mi ESE 3.5 mph - N/A   Clear
8:33 PM 57.2 °F 46.4 °F 67% 30.11 in 10.0 mi ESE 5.8 mph - N/A   Clear
8:52 PM 53.6 °F 46.4 °F 77% 30.11 in 10.0 mi Calm Calm - N/A   Clear
9:12 PM 55.4 °F 46.4 °F 72% 30.11 in 10.0 mi Calm Calm - N/A   Clear
9:32 PM 53.6 °F 46.4 °F 77% 30.11 in 10.0 mi Calm Calm - N/A   Clear
9:52 PM 53.6 °F 44.6 °F 72% 30.11 in 10.0 mi SE 3.5 mph - N/A   Clear
10:13 PM 53.6 °F 44.6 °F 72% 30.10 in 10.0 mi SE 3.5 mph - N/A   Clear
10:32 PM 53.6 °F 44.6 °F 72% 30.10 in 10.0 mi SE 3.5 mph - N/A   Clear
10:52 PM 53.6 °F 44.6 °F 72% 30.10 in 10.0 mi SE 3.5 mph - N/A   Clear
11:12 PM 53.6 °F 44.6 °F 72% 30.10 in 10.0 mi SE 3.5 mph - N/A   Clear
11:32 PM 53.6 °F 44.6 °F 72% 30.09 in 10.0 mi SE 4.6 mph - N/A   Clear
11:53 PM 53.6 °F 44.6 °F 72% 30.09 in 10.0 mi SSE 5.8 mph - N/A   Clear